Estación municipal de Cànoves i Samalús (Vallès Oriental, P.N.del Montseny)

Consulta los datos en tiempo real de la estación municipal de Cànoves i Samalús





Hora UTC 20:25
Temperatura 23.3 ºC
Humedad 82.9 %
Presión 1021.6 hPa
Pluja 0.0 mm
Velocidad viento 0.0 km/h
Dirección viento NNE
Radiación solar 0.1 W/m²

Webcam

Datos diarios 2026-09-03



Hora UTC (invierno +1h; verano +2h)
Temperatura (ºC) Humedad (%) Presión (hPa) Velocidad viento (km/h) Precipitación (mm) Radiación solar (W/m²)
Hora UTC Aire Humedad Presión Vel. Dir. Vel. Max Dir. Intent. máx 5 min. Rad. Sol.
00:05 20.6 72.7 1021.6 3.8 NNW 3.8 NW 0.0 0.1
00:10 20.7 72.0 1021.7 3.2 NW 7.1 NNW 0.0 0.1
00:15 20.6 71.4 1021.6 2.6 NNW 5.3 NNW 0.0 0.1
00:20 20.7 71.2 1021.7 2.6 NNW 7.4 N 0.0 0.1
00:25 20.7 71.0 1021.7 2.5 NNW 3.9 NNW 0.0 0.1
00:30 20.7 71.2 1021.7 2.3 NNW 3.2 NW 0.0 0.1
00:35 20.6 72.0 1021.7 3.2 NNW 4.6 NNW 0.0 0.1
00:40 20.6 72.1 1021.6 3.3 NNW 4.6 NNW 0.0 0.1
00:45 20.6 72.4 1021.6 2.3 NW 3.9 NNW 0.0 0.1
00:50 20.6 72.5 1021.6 2.4 NNW 3.9 NNW 0.0 0.1
00:55 20.5 72.9 1021.6 3.0 NW 4.2 NNW 0.0 0.1
01:00 20.6 72.7 1021.5 2.9 NNW 4.9 NW 0.0 0.1
01:05 20.5 72.8 1021.5 1.9 NW 3.9 NNW 0.0 0.1
01:10 20.5 73.0 1021.5 1.4 N 3.5 NW 0.0 0.1
01:15 20.5 73.0 1021.5 1.1 NW 3.5 NW 0.0 0.1
01:20 20.4 73.0 1021.5 1.8 NNW 4.2 NW 0.0 0.1
01:25 20.5 73.3 1021.5 1.8 NW 3.2 NW 0.0 0.1
01:30 20.5 73.1 1021.5 1.6 NW 2.8 NW 0.0 0.1
01:35 20.5 73.1 1021.5 1.1 NNW 4.2 NNW 0.0 0.1
01:40 20.7 72.6 1021.5 2.2 NNW 7.1 NNE 0.0 0.1
01:45 20.8 72.0 1021.5 1.6 NNW 7.4 NNE 0.0 0.1
01:50 20.9 71.5 1021.5 1.9 N 8.1 NNE 0.0 0.1
01:55 21.1 70.9 1021.5 0.7 N 3.2 NNW 0.0 0.1
02:00 21.0 71.1 1021.5 1.6 N 5.6 NW 0.0 0.1
02:05 21.1 70.8 1021.5 3.0 N 7.8 NE 0.0 0.1
02:10 21.3 70.1 1021.5 3.8 NNE 8.5 NW 0.0 0.1
02:15 21.5 69.1 1021.5 2.1 N 7.4 N 0.0 0.1
02:20 21.5 68.8 1021.5 3.2 NNE 10.6 N 0.0 0.1
02:25 21.5 68.9 1021.5 3.5 N 9.9 N 0.0 0.1
02:30 21.6 68.7 1021.5 2.0 N 8.5 NNW 0.0 0.1
02:35 21.5 68.8 1021.5 2.3 NNW 10.9 NNW 0.0 0.1
02:40 21.5 68.8 1021.5 1.7 NW 4.6 N 0.0 0.1
02:45 21.4 69.0 1021.4 1.1 N 8.8 NNE 0.0 0.1
02:50 21.3 69.3 1021.4 1.5 NNW 10.9 NW 0.0 0.1
02:55 21.3 69.4 1021.4 2.5 N 5.6 NNW 0.0 0.1
03:00 21.3 69.3 1021.4 1.7 NNE 6.0 NE 0.0 0.1
03:05 21.2 69.7 1021.4 1.7 NNW 7.8 NNW 0.0 0.1
03:10 21.1 69.6 1021.3 1.4 NW 4.2 NNE 0.0 0.1
03:15 21.2 69.3 1021.2 2.4 NW 14.8 NNE 0.0 0.1
03:20 21.2 69.1 1021.2 2.4 NW 6.0 WNW 0.0 0.1
03:25 21.2 68.9 1021.3 2.6 NNW 7.1 NW 0.0 0.1
03:30 21.3 68.8 1021.3 2.3 NW 7.1 NNW 0.0 0.1
03:35 21.3 68.6 1021.3 2.2 NNW 9.2 NNE 0.0 0.1
03:40 21.5 68.1 1021.2 3.0 NNW 12.7 NNW 0.0 0.1
03:45 21.7 67.1 1021.2 2.6 NNW 8.8 NNE 0.0 0.1
03:50 21.6 67.5 1021.1 2.2 NNW 7.8 NNW 0.0 0.1
03:55 21.5 68.2 1021.1 3.0 NNW 6.4 NNW 0.0 0.1
04:00 21.4 68.0 1021.0 4.5 NNW 9.5 NNW 0.0 0.1
04:05 21.5 67.5 1021.0 4.0 NW 7.8 NNE 0.0 0.1
04:10 21.5 67.3 1021.0 3.3 NW 6.7 NW 0.0 0.1
04:15 21.5 67.4 1021.0 3.7 NW 7.1 NW 0.0 0.1
04:20 21.4 67.6 1020.9 2.9 NNW 7.4 NNW 0.0 0.1
04:25 21.4 67.9 1020.9 2.3 N 4.6 NNW 0.0 0.1
04:30 21.3 68.2 1020.9 1.3 NNW 3.5 NNE 0.0 0.1
04:35 21.1 68.6 1021.0 2.4 NW 4.9 N 0.0 0.1
04:40 21.1 68.7 1021.0 3.5 NW 7.4 NNW 0.0 0.1
04:45 21.1 68.6 1021.0 4.1 NW 7.8 NNW 0.0 0.1
04:50 21.1 68.6 1021.0 3.0 NW 5.6 NW 0.0 0.1
04:55 21.1 68.7 1021.0 3.3 NW 7.4 NW 0.0 0.2
05:00 21.0 68.8 1021.0 3.3 NW 7.1 NW 0.0 0.5
05:05 20.9 68.8 1021.0 3.5 NW 8.5 NNW 0.0 1.1
05:10 20.9 68.9 1021.1 3.4 NW 7.4 NNW 0.0 1.9
05:15 20.9 69.1 1021.1 4.7 NW 9.9 NW 0.0 3.3
05:20 21.2 68.2 1021.2 3.4 NW 7.8 NNW 0.0 5.4
05:25 21.3 67.8 1021.2 4.6 NW 12.7 NNW 0.0 7.9
05:30 21.5 67.3 1021.3 3.0 NW 6.7 NW 0.0 10.6
05:35 21.5 67.0 1021.4 3.5 NW 8.1 NNE 0.0 13.2
05:40 21.8 66.4 1021.4 3.3 WNW 7.8 WNW 0.0 16.1
05:45 21.7 66.8 1021.5 0.7 WNW 3.2 W 0.0 19.0
05:50 21.5 67.9 1021.5 0.5 NE 3.2 NE 0.0 22.2
05:55 21.3 68.7 1021.6 0.0 NNE 0.0 NE 0.0 28.4
06:00 21.2 70.0 1021.6 0.2 SSE 1.8 SSE 0.0 26.9
06:05 21.2 70.5 1021.6 0.3 SSE 1.8 SSE 0.0 28.5
06:10 21.3 70.0 1021.7 0.0 NNE 0.0 SSE 0.0 30.3
06:15 21.4 70.3 1021.7 0.0 NNE 0.0 SE 0.0 31.7
06:20 21.5 70.2 1021.8 0.8 N 5.3 NNW 0.0 33.1
06:25 21.8 69.0 1021.8 3.5 N 6.0 N 0.0 34.6
06:30 22.5 66.2 1021.9 4.3 N 7.1 0.0 36.0
06:35 23.2 64.2 1021.9 4.7 N 7.8 N 0.0 37.1
06:40 23.6 63.0 1021.9 3.0 NNE 5.6 N 0.0 38.1
06:45 23.8 62.4 1022.0 2.5 NNE 4.9 N 0.0 39.1
06:50 23.9 62.1 1022.0 0.0 NNE 1.1 NNE 0.0 40.2
06:55 24.0 62.3 1022.0 0.0 NNE 0.0 NNE 0.0 41.3
07:00 24.1 62.7 1022.0 1.6 E 3.9 ESE 0.0 42.1
07:05 24.4 61.6 1022.0 2.9 ESE 4.2 ESE 0.0 43.3
07:10 24.8 61.1 1022.1 2.7 ESE 4.6 SE 0.0 44.1
07:15 25.0 60.4 1022.1 3.2 ESE 5.3 SE 0.0 75.9
07:20 25.4 59.1 1022.1 3.8 ESE 5.6 ESE 0.0 49.5
07:25 25.8 57.6 1022.1 2.9 SE 4.9 ESE 0.0 58.0
07:30 26.2 55.3 1022.1 6.0 SE 10.6 SE 0.0 48.8
07:35 26.5 54.3 1022.1 5.7 SE 10.9 ESE 0.0 49.8
07:40 26.7 53.0 1022.2 6.6 SE 11.6 SE 0.0 71.0
07:45 26.7 52.6 1022.2 6.2 SSE 8.8 SE 0.0 104.8
07:50 26.9 52.3 1022.2 5.4 SE 9.5 SSE 0.0 362.2
07:55 26.9 52.7 1022.2 3.4 S 6.4 ESE 0.0 400.7
08:00 27.1 52.2 1022.2 6.3 SE 9.9 SE 0.0 415.7
08:05 27.2 52.3 1022.2 5.7 SSE 9.5 SSE 0.0 429.7
08:10 27.6 51.2 1022.2 8.6 ESE 12.4 SE 0.0 443.6
08:15 27.6 50.9 1022.2 8.6 SE 11.6 ESE 0.0 456.6
08:20 27.8 50.6 1022.2 8.5 ESE 13.4 ESE 0.0 470.2
08:25 28.0 49.8 1022.3 7.0 SE 12.7 SE 0.0 483.1
08:30 28.1 49.6 1022.3 8.6 ESE 12.0 ESE 0.0 495.6
08:35 28.1 49.6 1022.3 8.7 ESE 14.8 ESE 0.0 465.4
08:40 28.3 49.6 1022.4 8.4 SE 14.5 SE 0.0 522.0
08:45 28.5 49.9 1022.4 7.2 SSE 13.1 SSE 0.0 534.5
08:50 28.6 48.9 1022.4 7.1 SE 13.1 SE 0.0 547.1
08:55 28.9 48.7 1022.4 6.8 SE 14.8 SSE 0.0 558.2
09:00 29.0 48.5 1022.4 8.1 SE 12.7 SE 0.0 568.6
09:05 29.1 48.4 1022.4 7.3 SE 12.7 SSE 0.0 579.3
09:10 29.3 47.1 1022.5 6.1 SW 13.4 WSW 0.0 589.5
09:15 29.7 46.4 1022.6 3.7 SSW 8.8 S 0.0 600.9
09:20 29.9 46.1 1022.6 4.7 SE 12.7 S 0.0 611.4
09:25 30.0 45.8 1022.6 5.5 SSE 10.6 ESE 0.0 622.2
09:30 30.2 43.4 1022.6 6.5 SSW 13.1 S 0.0 632.8
09:35 30.3 43.1 1022.6 5.2 SE 14.1 SE 0.0 640.7
09:40 30.3 43.8 1022.5 5.3 SE 15.2 SE 0.0 650.6
09:45 30.4 40.0 1022.6 4.5 WSW 12.0 WSW 0.0 657.3
09:50 30.4 39.7 1022.6 9.9 WSW 20.1 W 0.0 667.5
09:55 30.4 39.4 1022.6 9.4 W 18.0 NW 0.0 676.6
10:00 30.5 39.7 1022.5 8.4 WSW 22.2 SSW 0.0 685.5
10:05 30.6 40.0 1022.5 5.5 S 13.1 SW 0.0 693.1
10:10 30.6 40.2 1022.4 8.9 SSW 16.6 SSE 0.0 699.7
10:15 30.7 40.8 1022.4 11.2 SSE 19.8 SE 0.0 705.5
10:20 30.6 41.6 1022.4 11.9 SE 18.4 ESE 0.0 711.0
10:25 30.9 41.0 1022.3 8.5 SSE 17.6 SE 0.0 715.6
10:30 31.0 40.8 1022.3 11.3 SSE 24.7 SSE 0.0 722.2
10:35 31.2 40.9 1022.3 5.8 SSW 17.6 S 0.0 728.4
10:40 31.3 40.2 1022.2 10.0 SSE 21.2 SE 0.0 734.8
10:45 31.1 41.4 1022.2 7.5 SSE 14.1 SSW 0.0 737.8
10:50 31.3 40.7 1022.1 5.1 SW 13.4 NW 0.0 737.7
10:55 31.3 40.3 1022.1 9.8 S 18.7 SSE 0.0 746.4
11:00 31.0 41.3 1021.9 8.8 SSE 17.6 SE 0.0 750.3
11:05 31.1 41.4 1021.9 8.3 SE 18.0 SSW 0.0 753.7
11:10 31.2 43.2 1021.9 9.1 SSE 18.7 SSE 0.0 754.0
11:15 31.3 42.7 1021.8 10.7 SSE 22.6 SSE 0.0 759.5
11:20 31.5 41.5 1021.8 5.0 SSE 19.4 S 0.0 760.2
11:25 31.9 41.7 1021.7 10.9 S 20.5 SE 0.0 761.6
11:30 31.3 42.6 1021.7 9.8 SW 18.4 SW 0.0 765.0
11:35 31.2 44.1 1021.6 12.9 SSE 24.3 S 0.0 767.0
11:40 31.3 44.3 1021.6 12.3 SSE 21.5 SSE 0.0 767.6
11:45 31.4 43.8 1021.6 10.8 SSE 24.3 SSE 0.0 766.6
11:50 31.3 43.7 1021.6 8.4 SE 16.2 SE 0.0 767.6
11:55 31.4 43.5 1021.5 11.2 SSE 21.9 SE 0.0 766.1
12:00 31.4 43.4 1021.5 11.7 SSW 21.9 SE 0.0 767.5
12:05 31.5 42.8 1021.4 6.8 SE 19.1 WSW 0.0 768.2
12:10 31.9 42.1 1021.4 6.0 SSW 15.5 S 0.0 767.4
12:15 32.3 41.4 1021.5 6.4 SW 18.7 S 0.0 766.1
12:20 32.1 41.2 1021.5 6.9 WSW 16.9 SW 0.0 764.1
12:25 32.0 41.4 1021.4 8.9 S 20.1 SSE 0.0 761.7
12:30 31.7 41.7 1021.4 10.2 SSW 19.4 S 0.0 759.0
12:35 31.8 41.6 1021.5 4.4 SSW 13.1 SSW 0.0 754.8
12:40 31.9 41.6 1021.4 6.9 SSE 17.6 SW 0.0 749.5
12:45 32.0 41.0 1021.4 10.7 S 19.4 S 0.0 743.4
12:50 31.8 41.5 1021.4 8.6 S 15.2 SSE 0.0 737.0
12:55 31.7 41.5 1021.4 9.2 SSE 17.6 SE 0.0 710.4
13:00 31.6 41.7 1021.4 7.2 SSE 16.6 SSE 0.0 683.2
13:05 31.8 41.7 1021.3 8.3 S 19.8 W 0.0 723.4
13:10 32.2 40.8 1021.3 8.1 SSW 14.1 SSE 0.0 717.6
13:15 32.0 41.4 1021.3 11.0 SSE 20.5 SSE 0.0 711.0
13:20 31.8 42.0 1021.2 9.5 S 19.1 SSE 0.0 704.0
13:25 32.0 41.7 1021.2 7.6 WSW 17.6 SW 0.0 696.9
13:30 31.9 42.0 1021.2 10.7 SW 20.8 WSW 0.0 688.3
13:35 31.9 42.8 1021.2 9.8 S 20.1 SSW 0.0 681.0
13:40 31.7 43.6 1021.2 9.5 S 17.3 SSW 0.0 674.5
13:45 31.7 44.2 1021.2 9.5 SSW 18.0 SE 0.0 664.7
13:50 31.6 45.2 1021.1 7.8 S 16.2 SSW 0.0 651.2
13:55 31.5 46.8 1021.1 10.8 S 18.4 SSE 0.0 642.8
14:00 31.5 47.6 1021.0 10.0 S 20.1 SSW 0.0 633.1
14:05 31.2 49.3 1020.9 10.1 S 18.7 SSE 0.0 625.0
14:10 31.5 49.3 1020.9 11.4 SSE 19.8 SSE 0.0 614.7
14:15 31.1 50.4 1020.9 13.3 SSE 27.5 S 0.0 601.1
14:20 31.1 50.6 1020.9 9.4 SSE 22.9 S 0.0 587.9
14:25 31.1 51.5 1021.0 9.9 S 20.1 SSE 0.0 580.5
14:30 31.2 52.0 1020.9 9.1 S 23.3 SW 0.0 570.5
14:35 31.3 52.2 1020.9 11.4 SSE 19.1 S 0.0 556.0
14:40 31.1 53.3 1020.9 11.6 SE 20.8 SE 0.0 545.1
14:45 31.0 54.0 1020.9 10.8 SSE 18.0 ESE 0.0 535.4
14:50 30.9 54.2 1020.9 7.8 SSE 14.5 S 0.0 521.5
14:55 30.9 55.0 1020.9 10.1 SSE 16.9 SE 0.0 509.2
15:00 30.9 55.8 1020.8 8.0 SSW 13.4 SSW 0.0 494.4
15:05 31.1 55.1 1020.8 8.8 SSW 15.2 SW 0.0 483.0
15:10 30.5 57.3 1020.8 11.3 S 20.5 S 0.0 468.6
15:15 30.5 58.0 1020.7 9.3 SSW 17.6 S 0.0 454.7
15:20 30.0 59.4 1020.7 12.1 S 23.3 SSW 0.0 447.7
15:25 29.9 60.2 1020.7 8.9 SSW 16.2 SSW 0.0 433.0
15:30 29.9 60.6 1020.7 11.1 SSW 20.1 SSW 0.0 421.4
15:35 29.9 61.2 1020.7 8.7 S 17.3 SSW 0.0 406.1
15:40 29.8 61.4 1020.7 7.6 SSW 15.9 S 0.0 393.0
15:45 29.7 61.3 1020.7 7.8 SSW 15.2 S 0.0 380.9
15:50 29.6 61.6 1020.7 7.2 SSW 20.1 S 0.0 367.8
15:55 29.2 63.0 1020.8 7.2 SSW 13.1 SSW 0.0 351.1
16:00 29.1 63.2 1020.8 7.4 SSW 16.2 SSW 0.0 337.4
16:05 29.0 63.5 1020.7 7.5 S 18.4 S 0.0 321.4
16:10 28.9 64.4 1020.7 6.8 SSE 13.4 S 0.0 305.4
16:15 28.7 65.1 1020.7 8.2 S 15.2 SW 0.0 291.3
16:20 28.7 65.0 1020.7 6.1 S 12.7 SSW 0.0 276.6
16:25 28.7 65.7 1020.7 7.0 SSE 11.6 S 0.0 263.0
16:30 28.6 66.5 1020.8 6.4 SSE 11.3 SSW 0.0 248.8
16:35 28.5 67.1 1020.8 7.1 S 14.8 SSW 0.0 231.4
16:40 28.4 67.1 1020.8 7.7 SSE 15.2 SE 0.0 213.8
16:45 28.2 67.8 1020.9 6.3 SE 10.9 S 0.0 201.7
16:50 28.1 68.0 1020.8 6.5 SSE 10.6 SE 0.0 189.4
16:55 28.1 68.1 1020.8 6.7 SSE 13.1 SSE 0.0 175.0
17:00 28.0 68.8 1020.8 8.9 SE 13.4 SE 0.0 159.7
17:05 27.8 69.3 1020.8 7.4 SSE 12.7 S 0.0 147.9
17:10 27.8 69.0 1020.8 6.6 S 13.8 SSE 0.0 134.6
17:15 27.7 68.9 1020.8 6.7 S 12.4 SSE 0.0 119.4
17:20 27.5 69.4 1020.8 7.5 SSE 12.7 S 0.0 54.2
17:25 27.3 71.8 1020.8 7.2 SSE 11.3 SE 0.0 30.9
17:30 27.0 73.9 1020.8 8.4 SSE 16.6 SSE 0.0 28.2
17:35 26.6 75.2 1020.8 6.8 SSE 12.0 SE 0.0 26.1
17:40 26.4 75.9 1020.9 4.4 SSE 8.8 SE 0.0 23.7
17:45 26.3 76.3 1020.9 3.6 SSE 7.8 SE 0.0 21.2
17:50 26.2 76.4 1020.9 3.7 SSE 6.7 SSE 0.0 18.8
17:55 26.1 76.3 1020.9 4.6 S 8.5 S 0.0 16.0
18:00 26.1 76.3 1021.0 2.7 S 5.3 S 0.0 13.1
18:05 26.0 76.5 1021.0 2.2 SE 3.9 SSE 0.0 10.1
18:10 25.9 76.8 1021.0 2.2 S 4.9 S 0.0 7.4
18:15 25.8 77.3 1021.0 2.0 SSW 4.9 S 0.0 5.0
18:20 25.6 77.7 1021.1 0.0 SSW 1.1 SSW 0.0 3.3
18:25 25.5 77.8 1021.1 0.5 SSW 2.1 SSW 0.0 2.0
18:30 25.3 78.2 1021.1 0.8 SSW 3.2 WSW 0.0 1.2
18:35 25.1 78.8 1021.1 3.7 SW 5.6 SW 0.0 0.5
18:40 25.1 78.7 1021.2 2.2 WSW 6.4 SW 0.0 0.2
18:45 24.9 78.7 1021.2 2.1 WSW 4.2 SW 0.0 0.1
18:50 24.8 79.0 1021.2 3.0 SW 5.6 SSW 0.0 0.1
18:55 24.8 79.3 1021.2 3.4 SSW 6.0 SW 0.0 0.1
19:00 24.7 79.3 1021.2 2.0 W 3.9 SSW 0.0 0.1
19:05 24.5 79.9 1021.3 3.5 W 4.2 W 0.0 0.1
19:10 24.4 80.3 1021.3 3.8 W 5.3 W 0.0 0.1
19:15 24.3 80.5 1021.4 2.6 W 4.2 W 0.0 0.1
19:20 24.1 80.8 1021.4 3.9 W 4.6 W 0.0 0.1
19:25 24.0 81.1 1021.5 2.5 WSW 3.5 WSW 0.0 0.1
19:30 23.8 81.3 1021.5 2.9 W 3.9 W 0.0 0.1
19:35 23.7 81.5 1021.5 2.7 W 3.9 W 0.0 0.1
19:40 23.7 81.7 1021.5 2.3 WNW 3.9 WNW 0.0 0.1
19:45 23.7 82.1 1021.5 2.0 WNW 5.3 WNW 0.0 0.1
19:50 23.6 81.9 1021.6 1.6 SSW 3.2 SSW 0.0 0.1
19:55 23.6 82.2 1021.6 2.4 WSW 6.0 SW 0.0 0.1
20:00 23.7 82.5 1021.6 2.7 SSW 6.0 SW 0.0 0.1
20:05 23.6 82.2 1021.6 1.8 S 4.2 SSE 0.0 0.1
20:10 23.6 82.5 1021.6 0.8 S 3.2 SSE 0.0 0.1
20:15 23.5 82.3 1021.6 0.1 NE 1.4 NE 0.0 0.1
20:20 23.4 82.7 1021.7 0.0 NE 1.1 NE 0.0 0.1
20:25 23.3 82.9 1021.6 0.0 NNE 0.0 NE 0.0 0.1
Máxima 32.3 82.9 1022.6 13.3 SSE 27.5 S 0.0 768.2
Mínima 20 39.4 1020.7
Total 0.0